Weather in Valay

Russia / Perm Krai     60°49′38″N   57°30′25″E
В апреле 2022 года жителям России запретили посещать сайт meteo.paraplan.net по решению Генеральной прокуратуры. Аудитория сайта уменьшилась в 10 раз. Владельцы сайта не видят смысла в поддержке погодного сервера в таких условиях. Сайт будет закрыт в октябре.
temp.,
°C
wind,
m/s
gust,
m/s
humid.,
%
clouds,
%
prec.,
mm/h
press.,
hPa
HPBL,
m
3 october, mon
mon323:00+9s41474100 0.1 1014711
02:00+7s61491100 1.2 1013795
05:00+7s51394100 2.1 1014676
08:00+8s51395100 0.0 1013613
11:00+8s41196100 0.1 1014529
14:00+8ssw41197100 0.1 1016577
17:00+9ssw31098100 1.8 1017481
20:00+9ssw3998100 0.9 1019431
4 october, tue
tue423:00+9ssw3998100 4.4 1020464
02:00+9ssw31095100 0.3 1021394
05:00+7ssw31096100 0.3 1022310
08:00+6s299694 0.0 1024270
11:00+10ssw378079 0.0 1025386
14:00+12ssw487087 0.0 1026563
17:00+12ssw497170 0.0 1027566
20:00+7s29865 0.0 1028211
5 october, wed
wed523:00+6s288436 0.0 1028189
02:00+6s278298 0.0 1028174
05:00+4sse258435 0.0 102894
08:00+4s21082100 0.0 1028225
11:00+8s3860100 0.0 1026348
14:00+9s3859100 0.0 1026528
17:00+7s3766100 0.0 1026474
20:00+5sse2979100 0.0 1026340
6 october, thu
thu623:00+6sse26806 0.0 1024372
02:00+3ese119470 0.0 102410
05:00+3ese1191100 0.0 102213
08:00+4se2878100 0.0 1021273
11:00+6s2873100 0.1 1020451
14:00+4sse3794100 2.6 1019758
17:00+4se2795100 3.1 1017441
20:00+5sse2893100 0.0 1016381
7 october, fri
fri723:00+5s2892100 0.2 1014478
02:00+5sse2696100 0.3 1013361
05:00+5sse2698100 0.4 1011379
08:00+5s2698100 0.0 1009440
11:00+5sw259596 0.1 1007445
14:00+7sw358290 0.1 1006695
17:00+6ssw2691100 0.9 1004713
20:00+5ssw3791100 0.3 1003654